Game POKER ONLINE By JWPOKER

Jackpot

Texas Poker Multi Jackpot System

Kini Telah hadir Jackpot SUPER ROYAL FLUSH

Kini Telah hadir Jackpot 2000 (khusus table VIP keatas).

Ikutilah global jackpot yang tersedia di system kami, dengan system jackpot terbaru dan pertama di indonesia, anda dapat membeli jackpot dengan harga 100 rupiah saja dan menangkan hadiahnya hingga puluhan juta rupiah.

Jackpot bukanlah suatu keharusan untuk dibeli, namun kami memberikan suatu fitur tambahan untuk member tercinta dari www.jwpoker.net.

Terdapat tiga pilihan harga jackpot yang bisa anda beli yaitu :100,500,1000 dan 2000(khusus table VIP Keatas) rupiah.

Hadiah dari Multi jackpot system www.jwpoker.net

  1. full house x 10 harga jackpot yang anda beli.
      (contoh:anda membeli 1000 maka:1000 X10 = 10.000)
  2. four of kind x 250 harga jackpot yang anda beli
      (contoh:anda membeli 1000 maka:1000 X250 = 250.000)
  3. Straight flush x 1200
      (contoh:anda membeli 1000 maka:1000 X1200 = 1.200.000)
  4. Royal flush x 10000 harga jackpot yang anda beli
      (contoh:anda membeli 1000 maka:1000 X10000 = 10.000.000)
  5. SUPER ROYAL FLUSH x 30000 harga jackpot yang anda beli
      (contoh:anda membeli 1000 maka:1000 X30000 = 30.000.000)

Kondisi kartu

  1. full house adalah kondisi kartu dimana kartu anda dan kartu tengah dengan total 7 kartu bisa mendapatkan nilai 5 kartu dengan kombinasi 1 tris(three of kind) dan 1 pair, contoh 3 kartu 10 dan 2 kartu 5
  2. Four of kind adalah kondisi kartu dimana kartu anda dan kartu tengah dengan total 7 kartu bisa mendapatkan nilai 5 kartu dengan kombinasi 4 kartu yang sama jumlah dan 1 kartu apapun juga contoh anda mendapatkan 4 buah kartu angka 3 dan 1 kartu apapun.
  3. Staright flush adalah kondisi kartu dimana kartu anda dan kartu tengah dengan total 7 kartu bisa mendapatkan nilai 5 kartu dengan kombinasi seri / staright dengan kembang yang sama contoh : urutan kartu dari angka 5, 6, 7, 8 , 9 10 dengan kembang yg sama misalnya as hati
  4. Royal flush adalah kondisi kartu dimana kartu anda dan kartu tengah dengan total 7 kartu bisa mendapatkan nilai 5 kartu dengan kombinasi seri / staright dengan kembang yang sama tetapi kartu tersebut haruslah dimulai dari 10. contoh 10, Queen, Jack, King dan aces dengan kembang yang sama
  5. Super Royal flush adalah kondisi kartu dimana Kedua kartu anda digabung dengan 3 kartu pertama meja haruslah royal flush. contoh kartu anda 10,Queen kembang sama dan 3 kartu pertama meja adalah Jack, King dan aces dengan kembang yang sama

Demikian adalah penjelasan dari Multi Jackpot www.jwpoker.net terima kasih dan selamat bermain salam hoki dari kami

Texas Poker Jackpot Winner

TOP SUPER ROYAL FLUSH
No.TanggalNamaPriceWin
125/09 05:30B365CA9ASuper Royal flush6,000,000
225/09 00:17N0AH16Super Royal flush3,000,000
324/09 23:12SAF99Super Royal flush1,500,000
424/09 16:34OPPOF9Super Royal flush30,000,000
524/09 14:33ALL19Super Royal flush6,000,000
TOP ROYAL FLUSH
No.TanggalNamaPriceWin
125/09 08:49CUPLIS08Royal flush5,000,000
225/09 08:46TEMB1KRoyal flush10,000,000
325/09 08:09TATAA2000Royal flush2,000,000
425/09 07:23EXA98Royal flush2,000,000
525/09 07:21TIRTA678Royal flush1,000,000
TOP STRAIGHT FLUSH
No.TanggalNamaPriceWin
125/09 08:53C1605R0560Straight Flush1,200,000
225/09 08:40BB06B0D7Straight Flush240,000
325/09 08:39PUJIKU1Straight Flush1,200,000
425/09 08:37ZERO555Straight Flush1,200,000
525/09 08:37K451477Straight Flush600,000
LATEST JACKPOT
No.TanggalNamaPriceWin
125/09 08:54JABO44Full House5,000
225/09 08:54BRC007Full House2,000
325/09 08:54IZ276145Full House2,000
425/09 08:54RIMELGAFull House10,000
525/09 08:54CASPER89Full House10,000
625/09 08:54LAUPE999Full House2,000
725/09 08:54SUKESI531Full House10,000
825/09 08:54JOKOWI563Full House2,000
925/09 08:54CAHYADXXXFull House10,000
1025/09 08:54REZAZARE88Full House2,000
1125/09 08:54JONTAR03Full House5,000
1225/09 08:54VIVIS110Full House10,000
1325/09 08:54MARK33Full House10,000
1425/09 08:54SHIDOMBAFull House20,000
1525/09 08:54AC627138Full House2,000
1625/09 08:54IYAS22Full House1,000
1725/09 08:54BIMA3827Full House10,000
1825/09 08:54CLARA1Full House2,000
1925/09 08:54ANGGA19098Full House10,000
2025/09 08:54ZAX1208Full House10,000
2125/09 08:54W1NN3R10JTFull House1,000
2225/09 08:54LAMBING234Full House5,000
2325/09 08:54GETSALLFull House10,000
2425/09 08:53B9F90B03Full House10,000
2525/09 08:53OKEZONEDFull House10,000
2625/09 08:53JIBREGX9Full House10,000
2725/09 08:53AHONG_JR56Full House2,000
2825/09 08:53AAAABIKA67Full House10,000
2925/09 08:53JACK2522Four Of A Kind50,000
3025/09 08:53BOSKUUUUFull House5,000
3125/09 08:53JKP009Full House5,000
3225/09 08:53IDMUSE88Full House2,000
3325/09 08:53INDRO4J1PFull House2,000
3425/09 08:53ALDIANSYAHFull House5,000
3525/09 08:53D7C7AD1BFull House5,000
3625/09 08:53SAKADFull House2,000
3725/09 08:53HY9WK5XUX3Full House2,000
3825/09 08:53MPUS18Full House10,000
3925/09 08:53ARBY12Full House5,000
4025/09 08:53C1BD5B6CFull House2,000
4125/09 08:53TTTT1212Full House2,000
4225/09 08:53EENGRAB88Full House2,000
4325/09 08:53PEPXXIFull House10,000
4425/09 08:53BOROK11Full House1,000
4525/09 08:53PT4DDRAGK190Full House2,000
4625/09 08:53EZAINCFBLSFull House20,000
4725/09 08:53JIBREGX9Full House10,000
4825/09 08:53FIKRI77Full House2,000
4925/09 08:53ION8VVVV66Full House5,000
5025/09 08:53WELGUSFull House10,000

Domino Multi Jackpot System

Ikutilah global jackpot yang tersedia di system kami, dengan system jackpot terbaru dan pertama di indonesia, anda dapat membeli jackpot dengan harga 100 rupiah saja dan menangkan hadiahnya hingga puluhan juta rupiah.

Jackpot bukanlah suatu keharusan untuk dibeli, namun kami memberikan suatu fitur tambahan untuk member tercinta dari www.jwpoker.net.

Terdapat tiga pilihan harga jackpot yang bisa anda beli yaitu :100,500 dan 1000 rupiah.

Hadiah dari Multi jackpot system www.jwpoker.net

  1. Murni Kecil x 50 harga jackpot yang anda beli.
      (contoh:anda membeli 1000 maka:1000 X 50 = 50.000)
  2. Murni Besar x 50 harga jackpot yang anda beli
      (contoh:anda membeli 1000 maka:1000 X 50 = 50.000)
  3. BALAK x 100 harga jackpot yang anda beli
      (contoh:anda membeli 1000 maka:1000 X 100 = 100.000)
  4. ENAM DEWA x 6666 harga jackpot yang anda beli
      (contoh:anda membeli 1000 maka:1000 X 6666 = 6.666.000)

Demikian adalah penjelasan dari Multi Jackpot www.jwpoker.net terima kasih dan selamat bermain salam hoki dari kami

Domino Jackpot Winner

TOP ENAM DEWA
No.TanggalNamaPriceWin
125/09 07:33REJEKIUYEmurni enam6,666,000
225/09 07:28B55EK757murni enam666,600
325/09 06:42ATIKmurni enam666,600
425/09 03:00TEMPUYAK90murni enam3,333,000
525/09 02:56MULLAHmurni enam3,333,000
TOP BALAK
No.TanggalNamaPriceWin
125/09 08:52THEFLASTERbalak100,000
225/09 08:47JESABIMA02balak100,000
325/09 08:43HATTORIbalak10,000
425/09 08:43NOVAL2006balak100,000
525/09 08:40TOP747balak10,000
LATEST JACKPOT
No.TanggalNamaPriceWin
125/09 08:54SALMA234murni kecil25,000
225/09 08:52THEFLASTERbalak100,000
325/09 08:52ABCD31murni besar5,000
425/09 08:51SENLIE85murni besar25,000
525/09 08:50ALDIANSYAHmurni besar5,000
625/09 08:49PINOKIO99murni kecil5,000
725/09 08:49FAUZIANOORmurni kecil5,000
825/09 08:48AAAALDSU61murni kecil25,000
925/09 08:48TOP747murni kecil5,000
1025/09 08:47JESABIMA02balak100,000
1125/09 08:46ARSEL31murni besar25,000
1225/09 08:45NAIBAHO15murni kecil50,000
1325/09 08:44MARYANTO70murni besar50,000
1425/09 08:43HATTORIbalak10,000
1525/09 08:43NOVAL2006balak100,000
1625/09 08:42YKB881546murni kecil25,000
1725/09 08:42ZHIESHINmurni kecil50,000
1825/09 08:41MCU97murni besar50,000
1925/09 08:40JCCCCCmurni kecil50,000
2025/09 08:40AGITmurni besar5,000
2125/09 08:40F9E7FE50murni kecil5,000
2225/09 08:40TOP747balak10,000
2325/09 08:39DEWON121balak100,000
2425/09 08:39RUDI0409murni besar50,000
2525/09 08:38SULAPANmurni besar5,000
2625/09 08:38LANLAN31murni kecil5,000
2725/09 08:38DARAHKU99murni besar25,000
2825/09 08:38AWR777murni kecil50,000
2925/09 08:38TWINS21murni besar50,000
3025/09 08:37ANDRI333murni kecil50,000
3125/09 08:36AHAE88balak100,000
3225/09 08:35M4N5UL3murni besar50,000
3325/09 08:34LB98566murni kecil5,000
3425/09 08:34ZOELFEmurni besar50,000
3525/09 08:33SOUL9murni besar50,000
3625/09 08:32JIUNG21murni kecil5,000
3725/09 08:32F486D12Dlucky992,500
3825/09 08:31KOPIRACUNlucky99350,000
3925/09 08:31KAMLANImurni besar5,000
4025/09 08:30ARIANTO86lucky992,500
4125/09 08:30RIC_53lucky9925,000
4225/09 08:30XONOX77murni kecil50,000
4325/09 08:30PINOKIO99murni kecil25,000
4425/09 08:29M4N5UL3balak100,000
4525/09 08:28HARIANSYAHmurni kecil50,000
4625/09 08:27CEMPLUNDmurni besar50,000
4725/09 08:27ARSEL31balak50,000
4825/09 08:27G3FSYTF2HWlucky992,500
4925/09 08:27TADUKmurni besar25,000
5025/09 08:27KEMPUL87balak10,000

Ceme Multi Jackpot System

Jackpot dilihat dari gabungan kartu pemain dengan kartu bandar. Bandar harus membeli jackpot sebanyak jumlah player yang sedang duduk. Sebagai contoh bila terdapat 3 pemain duduk bermain, dan bandar memutuskan untuk membeli jackpot Rp 1.000, maka pada periode tersebut bandar akan membeli jackpot sebanyak 3xRp1.000 = Rp3.000.

Jackpot bukanlah suatu keharusan untuk dibeli, namun kami memberikan suatu fitur tambahan untuk member tercinta dari www.jwpoker.net.

Terdapat tiga pilihan harga jackpot yang bisa anda beli yaitu :100,500 dan 1000 rupiah.

Hadiah dari Multi jackpot system www.jwpoker.net

  1. Murni Kecil x 50 harga jackpot yang anda beli.
      (contoh:anda membeli 1000 maka:1000 X 50 = 50.000)
  2. Murni Besar x 50 harga jackpot yang anda beli
      (contoh:anda membeli 1000 maka:1000 X 50 = 50.000)
  3. BALAK x 200 harga jackpot yang anda beli
      (contoh:anda membeli 1000 maka:1000 X 200 = 200.000)
  4. ENAM DEWA x 6666 harga jackpot yang anda beli
      (contoh:anda membeli 1000 maka:1000 X 6666 = 6.666.000)

Demikian adalah penjelasan dari Multi Jackpot www.jwpoker.net terima kasih dan selamat bermain salam hoki dari kami

Ceme Jackpot Winner

TOP ENAM DEWA
No.TanggalNamaPriceWin
125/09 08:41A53RT610murni enam3,333,000
225/09 08:28LESSYmurni enam6,666,000
325/09 07:29WIJAYAKUmurni enam3,333,000
425/09 07:29RANIFATIHmurni enam666,600
525/09 07:22AZZULOVAmurni enam6,666,000
TOP BALAK
No.TanggalNamaPriceWin
125/09 08:54RENDIBRObalak200,000
225/09 08:54ARIS981balak100,000
325/09 08:54QO8RKUG8P3balak100,000
425/09 08:54KODOK188balak200,000
525/09 08:53AGGUSS01balak200,000
LATEST JACKPOT
No.TanggalNamaPriceWin
125/09 08:54RENDIBRObalak200,000
225/09 08:54ARIS981balak100,000
325/09 08:54LRVNBVA9GDmurni besar50,000
425/09 08:54THOBEDA11murni kecil25,000
525/09 08:54QO8RKUG8P3balak100,000
625/09 08:54KODOK188balak200,000
725/09 08:54JANGANAMmurni besar25,000
825/09 08:54KAPAKKmurni besar50,000
925/09 08:53SPOILED01murni besar25,000
1025/09 08:53A27AGNASR10174murni kecil50,000
1125/09 08:53DEFIRMANmurni kecil5,000
1225/09 08:53DUEETT999murni besar50,000
1325/09 08:53AGGUSS01balak200,000
1425/09 08:53RIZKYHOKIbalak200,000
1525/09 08:52BORNEO1221murni besar25,000
1625/09 08:52INCES011murni besar50,000
1725/09 08:52ALEXSANDR0murni kecil50,000
1825/09 08:52SARKODES73murni kecil50,000
1925/09 08:51SONGLIE223murni kecil5,000
2025/09 08:51GUPPY1688murni besar50,000
2125/09 08:51KORA2Xmurni besar25,000
2225/09 08:51PAYTOKmurni besar50,000
2325/09 08:51CYMENKKKKKmurni besar50,000
2425/09 08:51G24murni kecil50,000
2525/09 08:51HOKIKU1986murni kecil50,000
2625/09 08:51CEPIIIR22murni kecil50,000
2725/09 08:51PAKDE1980murni kecil50,000
2825/09 08:51RENDIBROmurni besar50,000
2925/09 08:51QEJENPP62Mmurni kecil50,000
3025/09 08:50ASRAUDINmurni kecil50,000
3125/09 08:50RARA4444murni besar50,000
3225/09 08:50ARIF24murni besar5,000
3325/09 08:50JERYCO87murni besar50,000
3425/09 08:50ALX19murni kecil50,000
3525/09 08:50ALPHRR7murni kecil50,000
3625/09 08:50TOPDEHmurni besar50,000
3725/09 08:50HIZAGUN_13murni kecil25,000
3825/09 08:50VEGARR1993murni besar50,000
3925/09 08:50KOI6999murni besar50,000
4025/09 08:50SUBAEDImurni kecil25,000
4125/09 08:49MEGAKUNYUKbalak20,000
4225/09 08:49NIRWASITAbalak200,000
4325/09 08:49AND_88balak200,000
4425/09 08:49VEGARR1993murni kecil50,000
4525/09 08:49POLICE888murni kecil5,000
4625/09 08:49AABRIKmurni kecil50,000
4725/09 08:49INDAHM69murni kecil50,000
4825/09 08:49DUEETT999murni kecil50,000
4925/09 08:48ATEVVV27murni besar50,000
5025/09 08:48ZYE123murni besar50,000